Content
SEND FEEDBACK

Daily
Averages
Monthly
Summary
United States of America

HASTINGS, MICHIGAN


Home > North America > United States > Michigan
Elevation: 256 meters     Latitude: 42 39N     Longitude: 085 16W

WEATHER
 
SELECT A DAY
Number of Records: 206,211;   Date Range: 1/1/95 - 9/20/14
 
SHARE

PRINT THIS DATA

[ ← Previous Day ]
WEATHER ALMANAC - 13 FEBRUARY, 2013
[ Next Day → ]
[ °F ]   °C
Weather ElementAverageHighLow
Temperature-0.8 °C4.4 °C (3:53 pm)-5 °C (7:53 am)
Dewpoint-5.1 °C-2.8 °C (5:53 pm)-7.2 °C (5:53 am)
Humidity74.1 %85 % (7:53 am)55 % (3:53 pm)
Barometer1009.8 hPa1013.9 hPa (1:53 am)1007.1 hPa (2:53 pm)
Wind Speed11.3 km/h22.2 km/h (2:53 pm)
Weather ElementAverage
Visibility15.1 km
Wind DirectionSSW (203.2 °)

Weather ElementTotal
Precipitation---
Heating Degree Days18.7 (Base 18.3)
Averaged from 25 records on 13 February, 2013
WEATHER CONDITIONS BREAKOUT
WIND DIRECTION BREAKOUT
WEATHER BY HOUR - 13 FEBRUARY, 2013
[ °F ]   °C
Local TimeTemperatureDewpointHumidityBarometerVisibilityWind DirectionWind SpeedGust SpeedPrecipitationEventsConditions
1:53 AM-2.8 °C-6.1 °C78 %1013.9 hPa16.1 kmWest (260°)11.1 km/hOvercast
2:53 AM-2.8 °C-6.1 °C78 %1013.2 hPa16.1 kmWest (260°)14.8 km/hOvercast
3:53 AM-2.8 °C-6.1 °C78 %1012.9 hPa16.1 kmWSW (250°)9.3 km/hOvercast
4:53 AM-2.8 °C-6.1 °C78 %1012.5 hPa16.1 kmWSW (240°)13 km/hOvercast
5:50 AM-4 °C-7 °C80 %1010.5 hPa16.1 kmSW (220°)7.4 km/hMostly Cloudy
5:53 AM-4.4 °C-7.2 °C81 %1011.9 hPa16.1 kmSW (220°)7.4 km/hMostly Cloudy
6:03 AM-4 °C-7 °C80 %1010.5 hPa16.1 kmSouth (180°)7.4 km/hPartly Cloudy
6:53 AM-4.4 °C-7.2 °C81 %1010.8 hPa14.5 kmSSE (160°)7.4 km/hClear
7:53 AM-5 °C-7.2 °C85 %1010.8 hPa9.7 kmSouth (180°)5.6 km/hClear
8:53 AM-3.9 °C-6.7 °C81 %1010.5 hPa11.3 kmSSW (200°)11.1 km/hClear
9:53 AM-2.8 °C-6.1 °C78 %1010.2 hPa14.5 kmSSW (200°)16.7 km/hClear
10:53 AM-1.1 °C-5.6 °C72 %1010.2 hPa16.1 kmSSW (200°)14.8 km/hClear
11:53 AM0 °C-4.4 °C73 %1010.2 hPa14.5 kmSW (220°)16.7 km/hClear
12:53 PM1.7 °C-3.9 °C67 %1009.1 hPa14.5 kmSSW (210°)18.5 km/hScattered Clouds
1:53 PM2.8 °C-3.9 °C62 %1007.8 hPa16.1 kmSW (230°)18.5 km/hClear
2:53 PM3.9 °C-3.3 °C60 %1007.1 hPa16.1 kmSW (220°)22.2 km/hClear
3:53 PM4.4 °C-3.9 °C55 %1007.1 hPa16.1 kmWSW (250°)16.7 km/hClear
4:53 PM4.4 °C-3.3 °C58 %1007.1 hPa16.1 kmSW (230°)16.7 km/hPartly Cloudy
5:53 PM3.3 °C-2.8 °C65 %1007.5 hPa16.1 kmSW (230°)13 km/hOvercast
6:53 PM2.8 °C-3.3 °C65 %1007.8 hPa16.1 kmCalmOvercast
7:53 PM1.1 °C-3.3 °C73 %1008.5 hPa16.1 kmSouth (180°)5.6 km/hClear
8:53 PM-0.6 °C-3.9 °C79 %1008.5 hPa12.9 kmSSE (160°)7.4 km/hPartly Cloudy
9:53 PM-1.1 °C-3.9 °C82 %1008.5 hPa14.5 kmSouth (180°)7.4 km/hMostly Cloudy
10:53 PM-1.1 °C-4.4 °C79 %1008.5 hPa16.1 kmSouth (180°)5.6 km/hClear
11:53 PM-2.2 °C-4.4 °C85 %1008.1 hPa14.5 kmSW (220°)5.6 km/hClear
Hourly data recorded from KBTL, located 0 kilometers away from Hastings, Michigan







STORIES FROM OUR PARTNERS